Location: Wald
(31.7579°N, 86.6655°W)
Time: 11:42:51
(UTC+00:00)

Cosmos 1825 - Pass Details

Date: 14 July 2020
Orbit: 502 x 508 km, 82.5° (Epoch: 08 August)

Event Time Altitude Azimuth Distance (km) Brightness Sun altitude
Exits shadow 03:26:00 24° 24° (NNE) 1,101 4.1 -26.1°
Drops below altitude 10° 03:27:37 10° 16° (NNE) 1,728 5.3 -26.3°
Sets 03:29:46 0° 12° (NNE) 2,618 6.3 -26.6°
